Погода в Варавае

Россия / Удмуртская Республика     57˚16′48″N   52˚33′59″E
темп.,
°C
ветер,
м/с
пор.,
м/с
влажн.,
%
обл.,
%
осадки,
мм/ч
давл.,
гПа
погр.,
м
17 января, вс
вс1701:00−12˚ююз41094100 0.3 997578
04:00−13˚ююз4994100 0.6 997505
07:00−14˚юз4995100 0.4 997477
10:00−14˚з4894100 0.8 1000418
13:00−14˚зсз4792100 0.1 1003527
16:00−16˚зсз3795100 0.2 1007349
19:00−21˚сз2310099 0.1 101168
22:00−24˚сз229981 0.1 101420
18 января, пн
пн1801:00−26˚сз129929 0.0 101619
04:00−26˚зюз129938 0.0 101719
07:00−27˚з119953 0.0 101819
10:00−26˚юз229867 0.0 101862
13:00−22˚зюз239547 0.0 1018190
16:00−23˚зюз229859 0.0 101820
19:00−26˚зюз12991 0.0 101820
22:00−26˚з119927 0.0 101819
19 января, вт
вт1901:00−26˚ссз119964 0.0 101919
04:00−25˚ссв229782 0.0 101930
07:00−24˚св2296100 0.0 101859
10:00−23˚всв2796100 0.0 1019191
13:00−20˚всв3692100 0.0 1018281
16:00−20˚св3892100 0.0 1017266
19:00−21˚св4985100 0.0 1017254
22:00−22˚всв31180100 0.0 1016258
20 января, ср
ср2001:00−21˚св3983100 0.0 1016244
04:00−21˚всв3988100 0.0 1016241
07:00−22˚всв3893100 0.0 1017219
10:00−23˚св249598 0.0 101894
13:00−18˚всв249139 0.0 1018239
16:00−20˚всв129620 0.0 101920
19:00−23˚юв12977 0.0 102020
22:00−24˚ююз1210024 0.0 102020
21 января, чт
чт2101:00−23˚юз229992 0.0 102031
04:00−23˚зюз269896 0.0 1020132
07:00−22˚зюз3689100 0.0 1019239
10:00−21˚зюз3698100 0.3 1018242
13:00−19˚зюз3796100 0.3 1017292
16:00−17˚зюз3895100 0.6 1016344
19:00−17˚юз3796100 0.3 1015293
22:00−16˚ююз3796100 0.8 1013276